Location: Boston
(42.3567°S, 71.0569°W)
Time: 23:04:22
(UTC-04:00)

Tiangong - Visible Passes

Search period start: 21 May 2024 00:00
Search period end: 31 May 2024 00:00
Orbit: 371 x 375 km, 41.5° (Epoch: 21 May)

Date Brightness Start Highest point End Pass type
(mag) Time Alt. Az. Time Alt. Az. Time Alt. Az.
21 May -2.1 18:44:42 10° W 18:47:52 77° N 18:49:05 34° E visible
22 May -1.7 19:17:49 10° W 19:20:38 59° NW 19:20:38 59° NW visible
23 May -2.1 18:14:16 10° W 18:17:26 76° N 18:20:10 13° E visible
23 May 0.6 19:50:54 10° W 19:52:08 20° WNW 19:52:08 20° WNW visible
24 May -1.6 18:47:09 10° W 18:50:15 54° NNW 18:51:38 28° NE visible
25 May -0.4 19:20:06 10° W 19:22:49 27° NNW 19:23:06 26° NNW visible
26 May -1.0 18:16:02 10° W 18:19:03 41° NNW 18:22:02 10° NE visible
26 May 1.1 19:54:01 10° NW 19:54:37 11° NW 19:54:37 11° NW visible
27 May 0.4 18:48:56 10° WNW 18:51:18 19° NNW 18:53:37 10° NNE visible
29 May 0.9 18:17:36 10° WNW 18:19:16 14° NNW 18:20:55 10° N visible
